Terminal Aerodrome Forecast
Issued by NWS Des Moines, IA

Home | Current Version | Previous Version | Text Only | Print | Product List | Glossary On
Versions: 1 2 3 4 5 6 7 8 9 10 11 12 13 14 15 16 17 18 19 20 21 22 23 24 25 26 27 28 29 30 31 32 33 34 35 36 37 38 39 40 41 42 43
000
FTUS43 KDMX 092340
TAFDSM
TAF
KDSM 092340Z 1000/1024 32016KT P6SM FEW025
     FM100800 32007KT P6SM BKN050
     FM101600 VRB05KT 2SM -SN BKN020 OVC040
     FM102200 07006KT 5SM -SN BKN020 OVC040=

USA.gov is the U.S. government's official web portal to all federal, state and local government web resources and services.